This demonstration page uses our WeatherBlox Daily Observations layout. Learn more.

Left ArrowRight Arrow

44.8408, -93.29828

Hourly Observations for November 2, 2019

Temp ( °F °C ) Dew Point ( °F °C ) Humidity (%) Winds ( mph kmh ) Pressure ( in mb ) Visibility ( mi km ) Precip ( " mm )
12:40 am 00:40 Mostly Cloudy 34 1.1 31 -0.6 89 89 WNW 9 15 30.11 1020 10 16 0.00 0.00
12:53 am 00:53 Cloudy 33 0.6 31 -0.6 92 92 WNW 8 13 30.09 1019 10 16 0.00 0.00
1:00 am 01:00 Mostly Cloudy 33 0.6 31 -0.6 92 92 W 7 11 30.11 1020 10 16 0.00 0.00
1:23 am 01:23 Cloudy 34 1.1 31 -0.6 89 89 W 7 11 30.11 1020 9 14 0.00 0.00
1:46 am 01:46 Mostly Cloudy 33 0.6 31 -0.6 92 92 W 7 11 30.11 1020 9 14 0.00 0.00
1:53 am 01:53 Mostly Cloudy 33 0.6 31 -0.6 92 92 WSW 5 7 30.09 1019 8 13 0.00 0.00
2:53 am 02:53 Cloudy 34 1.1 31 -0.6 89 89 W 6 9 30.08 1019 10 16 0.00 0.00
3:11 am 03:11 Cloudy 34 1.1 31 -0.6 89 89 W 8 13 30.10 1019 10 16 0.00 0.00
3:53 am 03:53 Cloudy 34 1.1 31 -0.6 89 89 W 5 7 30.08 1019 10 16 0.00 0.00
4:14 am 04:14 Cloudy 34 1.1 32 0 92 92 W 7 11 30.10 1019 10 16 0.00 0.00
4:36 am 04:36 Cloudy 34 1.1 31 -0.6 89 89 W 6 9 30.10 1019 10 16 0.00 0.00
4:53 am 04:53 Cloudy 34 1.1 32 0 92 92 W 6 9 30.08 1019 10 16 0.00 0.00
5:44 am 05:44 Cloudy with Light Snow 34 1.1 31 -0.6 89 89 WNW 7 11 30.10 1019 4 6 0.00 0.00
5:53 am 05:53 Cloudy with Light Snow 34 1.1 32 0 92 92 WNW 9 15 30.08 1019 4 6 0.00 0.00
6:17 am 06:17 Cloudy 33 0.6 31 -0.6 92 92 WNW 9 15 30.10 1019 10 16 0.00 0.00
6:53 am 06:53 Cloudy 34 1.1 30 -1.1 85 85 WNW 9 15 30.08 1019 10 16 0.00 0.00
7:53 am 07:53 Mostly Cloudy 33 0.6 28 -2.2 82 82 WNW 10 17 30.09 1019 10 16 0.00 0.00
8:53 am 08:53 Partly Cloudy 33 0.6 28 -2.2 82 82 WNW 13 20 30.11 1020 10 16 0.00 0.00
9:53 am 09:53 Cloudy 33 0.6 25 -3.9 72 72 NW 16 26 30.13 1020 10 16 0.00 0.00
10:53 am 10:53 Cloudy 33 0.6 26 -3.3 75 75 WNW 15 24 30.14 1021 10 16 0.00 0.00
11:03 am 11:03 Cloudy 33 0.6 26 -3.3 75 75 W 18 30 30.16 1021 10 16 0.00 0.00
11:40 am 11:40 Cloudy 33 0.6 25 -3.9 72 72 NW 15 24 30.17 1022 10 16 0.00 0.00
11:53 am 11:53 Cloudy 33 0.6 23 -5 66 66 NW 20 31 30.15 1021 10 16 0.00 0.00
12:37 pm 12:37 Cloudy 33 0.6 24 -4.4 70 70 NW 13 20 30.16 1021 10 16 0.00 0.00
12:53 pm 12:53 Cloudy 33 0.6 25 -3.9 72 72 NW 14 22 30.16 1021 10 16 0.00 0.00
1:53 pm 13:53 Cloudy 34 1.1 24 -4.4 67 67 WNW 12 19 30.15 1021 10 16 0.00 0.00
2:29 pm 14:29 Cloudy 34 1.1 23 -5 64 64 WNW 14 22 30.16 1021 10 16 0.00 0.00
2:53 pm 14:53 Cloudy 34 1.1 24 -4.4 67 67 WNW 14 22 30.15 1021 10 16 0.00 0.00
3:53 pm 15:53 Cloudy 34 1.1 23 -5 64 64 WNW 12 19 30.14 1021 10 16 0.00 0.00
4:53 pm 16:53 Cloudy 35 1.7 24 -4.4 64 64 WNW 9 15 30.14 1021 10 16 0.00 0.00
5:53 pm 17:53 Cloudy 35 1.7 24 -4.4 64 64 W 6 9 30.14 1021 10 16 0.00 0.00
6:53 pm 18:53 Cloudy 35 1.7 24 -4.4 64 64 W 5 7 30.14 1021 10 16 0.00 0.00
7:53 pm 19:53 Cloudy 35 1.7 24 -4.4 64 64 WNW 3 6 30.13 1020 10 16 0.00 0.00
8:53 pm 20:53 Partly Cloudy 34 1.1 24 -4.4 67 67 W 3 6 30.12 1020 10 16 0.00 0.00
9:53 pm 21:53 Partly Cloudy 33 0.6 24 -4.4 70 70 SSW 5 7 30.11 1020 10 16 0.00 0.00
10:53 pm 22:53 Partly Cloudy 33 0.6 24 -4.4 70 70 SSW 3 6 30.11 1020 10 16 0.00 0.00
11:53 pm 23:53 Partly Cloudy 32 0 25 -3.9 75 75 Calm 30.10 1019 10 16 0.00 0.00

Powered by AerisWeather